Regional Weather Roundup
Issued by NWS Kansas City/Pleasant Hill, MO

Home | Current Version | Previous Version | Text Only | Print | Product List | Glossary On
Versions: 1 2 3 4 5 6 7 8 9 10 11 12 13 14 15 16 17 18 19 20 21 22 23 24 25 26 27
000
ASUS43 KEAX 190810
RWREAX

WEATHER ROUNDUP FOR EASTERN KANSAS AND NORTHWEST MISSOURI
NATIONAL WEATHER SERVICE KANSAS CITY/PLEASANT HILL MO
300 AM CDT SAT AUG 19 2017

KSZ040-057-103>105-MOZ028-029-037-043-190900-
...KANSAS CITY METROPOLITAN AREA...

CITY           SKY/WX    TMP DP  RH WIND       PRES   REMARKS
K.C. INTL      CLEAR     67  66  97 CALM      29.93S FOG
K.C. DOWNTOWN  CLEAR     72  69  90 CALM      29.91S
LEES SUMMIT    CLEAR     73  70  90 SW5       29.93S
OLATHE - IXD   CLEAR     69  68  96 S6        29.94S
OLATHE - OJC   CLEAR     71  70  96 SW3       29.93F
LAWRENCE       CLEAR     66  66 100 NW3       29.93S

$$

MOZ001>008-011>017-020>025-030>033-038>040-044>046-053-054-190900-
...NORTHERN AND CENTRAL MISSOURI...

CITY           SKY/WX    TMP DP  RH WIND       PRES   REMARKS
ST. JOSEPH     FOG       61  61 100 CALM      29.93S VSB 1/4
WARRENSBURG    CLEAR     70  64  83 S6        29.92F
WHITEMAN AFB   CLEAR     69  69 100 SW8       29.92F
CLINTON        CLEAR     70  68  94 CALM      29.95S
SEDALIA        CLEAR     70  70 100 S8        29.94F
WARSAW         NOT AVBL
CHILLICOTHE      N/A     65  65 100 CALM      29.93S
KIRKSVILLE     CLOUDY    65  64  97 CALM      29.93S FOG

$$

MOZ041-047>049-056>058-063>065-088>090-097-190900-
...EASTERN AND SOUTHERN MISSOURI...

CITY           SKY/WX    TMP DP  RH WIND       PRES   REMARKS
ST. LOUIS INTL PTCLDY    75  68  78 SW5       29.92S
SPIRIT OF STL  PTCLDY    70  69  97 CALM      29.91S
COLUMBIA       CLEAR     68  64  87 SW7       29.93S
JEFFERSON CITY PTCLDY    71  68  90 CALM      29.92F
ROLLA          PTCLDY    68  66  93 SW9       29.96F
OSAGE BEACH    CLEAR     69  68  96 S3        29.96S
SPRINGFIELD    CLEAR     68  67  96 S7        29.98F
BRANSON        MOCLDY    66  66 100 CALM      30.01S
JOPLIN         CLEAR     71  70  96 S5        29.97F
WEST PLAINS    PTCLDY    70  68  93 SW6       30.00F

$$

IAZ060-094-KSZ022-034>040-054-083-096-NEZ052-066-093-190900-
...KANSAS...SOUTHEAST NEBRASKA AND IOWA...

CITY           SKY/WX    TMP DP  RH WIND       PRES   REMARKS
TOPEKA         PTCLDY    66  65  96 N5        29.94R
MANHATTAN      CLEAR     66  65  96 CALM      29.94S
EMPORIA        CLEAR     73  66  78 W5        29.96S
CHANUTE        CLEAR     72  69  90 CALM      29.96S
WICHITA        PTCLDY    74  67  78 SE6       29.95F
OMAHA          PTCLDY    64  60  87 N5        29.94S
LINCOLN        CLEAR     69  63  81 CALM      29.97S
FALLS CITY     CLEAR     66  64  93 NW3       29.93S
LAMONI         CLEAR     67  64  90 W3        29.92S
DES MOINES     MOCLDY    69  63  81 E7        29.91R

$$





USA.gov is the U.S. government's official web portal to all federal, state and local government web resources and services.